Weather History for Marion, SC

Change the Weather History Date:

Friday, March 21, 2014

  Actual Average (KFLO) Record (KFLO)
Temperature  
Mean Temperature 54 °F 57 °F  
Max Temperature 69 °F 69 °F 89 °F (1968)
Min Temperature 39 °F 45 °F 26 °F (1965)
Degree Days  
Heating Degree Days 11 9  
Month to date heating degree days 234  
Since 1 July heating degree days 2300  
Cooling Degree Days 0 1  
Month to date cooling degree days 8  
Year to date cooling degree days 14  
Growing Degree Days 4 (Base 50)    
Moisture  
Dew Point 31 °F    
Average Humidity 45    
Maximum Humidity 100    
Minimum Humidity 18    
Precipitation  
Precipitation 0.00 in 0.10 in 1.77 in (1970)
Month to date precipitation 2.29  
Year to date precipitation 8.44  
Snow  
Snow 0.00 in - - ()
Month to date snowfall  
Since 1 July snowfall  
Snow Depth -    
Sea Level Pressure  
Sea Level Pressure 30.11 in    
Wind  
Wind Speed 4 mph (East)    
Max Wind Speed 10 mph    
Max Gust Speed -    
Visibility 10 miles    
Events      
T = Trace of Precipitation, MM = Missing Value Source: NWS Daily Summary

Daily Weather History Graph

Daily Weather History Graph

Search for Another Location

Airport:

Trip Planner

Search our weather history database for the weather conditions in past years. The results will help you decide how hot, cold, wet, or windy it might be!

Date:

Astronomy

Mar. 21, 2014 Rise Set
Actual Time 7:19 AM EDT 7:29 PM EDT
Civil Twilight 6:54 AM EDT 7:54 PM EDT
Nautical Twilight 6:25 AM EDT 8:24 PM EDT
Astronomical Twilight 5:55 AM EDT 8:53 PM EDT
Moon No Moon Rise 10:21 AM EDT
Length of Visible Light 13h 00m
Length of Day
12h 10m
Waning Gibbous, 75% of the Moon is Illuminated
Mar 21
Waning Gibbous
Mar 23
Last Quarter
Mar 30
New
Apr 7
First Quarter
Apr 15
Full

Hourly Weather History & Observations

Time (EDT) Temp. Windchill Dew Point Humidity Pressure Visibility Wind Dir Wind Speed Gust Speed Precip Events Conditions
12:15 AM 44.6 °F - 41.0 °F 87% 30.02 in 10.0 mi Calm Calm - N/A   Clear
12:35 AM 44.6 °F - 41.0 °F 87% 30.03 in 10.0 mi Calm Calm - N/A   Clear
12:55 AM 44.6 °F - 42.8 °F 93% 30.03 in 10.0 mi Calm Calm - N/A   Clear
1:15 AM 42.8 °F - 42.8 °F 100% 30.03 in 10.0 mi Calm Calm - N/A   Clear
1:35 AM 42.8 °F - 41.0 °F 93% 30.04 in 7.0 mi Calm Calm - N/A   Clear
1:55 AM 42.8 °F - 41.0 °F 93% 30.05 in 7.0 mi Calm Calm - N/A   Clear
2:15 AM 42.8 °F 40.1 °F 41.0 °F 93% 30.05 in 7.0 mi NNW 4.6 mph - N/A   Clear
2:35 AM 44.6 °F 41.4 °F 41.0 °F 87% 30.05 in 10.0 mi North 5.8 mph - N/A   Clear
2:55 AM 46.4 °F 42.4 °F 37.4 °F 71% 30.06 in 10.0 mi North 8.1 mph - N/A   Clear
3:15 AM 50.0 °F - 33.8 °F 54% 30.07 in 10.0 mi North 9.2 mph - N/A   Clear
3:35 AM 50.0 °F - 32.0 °F 50% 30.07 in 10.0 mi North 10.4 mph - N/A   Clear
3:55 AM 50.0 °F - 30.2 °F 47% 30.07 in 10.0 mi North 10.4 mph - N/A   Clear
4:15 AM 50.0 °F - 30.2 °F 47% 30.07 in 10.0 mi North 10.4 mph - N/A   Clear
4:35 AM 50.0 °F - 28.4 °F 43% 30.08 in 10.0 mi NNE 10.4 mph - N/A   Clear
4:55 AM 48.2 °F - 28.4 °F 46% 30.08 in 10.0 mi North 9.2 mph - N/A   Clear
5:15 AM 46.4 °F 42.4 °F 28.4 °F 50% 30.09 in 10.0 mi North 8.1 mph - N/A   Clear
5:35 AM 44.6 °F 40.2 °F 28.4 °F 53% 30.10 in 10.0 mi NNE 8.1 mph - N/A   Clear
5:55 AM 44.6 °F 40.7 °F 28.4 °F 53% 30.10 in 10.0 mi NNE 6.9 mph - N/A   Clear
6:15 AM 44.6 °F 41.4 °F 28.4 °F 53% 30.11 in 10.0 mi NNE 5.8 mph - N/A   Clear
6:35 AM 42.8 °F 40.1 °F 28.4 °F 57% 30.12 in 10.0 mi NNE 4.6 mph - N/A   Clear
6:55 AM 42.8 °F 40.1 °F 30.2 °F 61% 30.13 in 10.0 mi NNE 4.6 mph - N/A   Clear
7:15 AM 42.8 °F 41.1 °F 28.4 °F 57% 30.13 in 10.0 mi NNE 3.5 mph - N/A   Clear
7:35 AM 41.0 °F - 30.2 °F 65% 30.14 in 10.0 mi Calm Calm - N/A   Clear
7:55 AM 39.2 °F - 32.0 °F 75% 30.14 in 10.0 mi Calm Calm - N/A   Clear
8:15 AM 42.8 °F 41.1 °F 33.8 °F 70% 30.15 in 10.0 mi NNE 3.5 mph - N/A   Clear
8:35 AM 46.4 °F - 32.0 °F 57% 30.16 in 10.0 mi Calm Calm - N/A   Clear
8:55 AM 50.0 °F - 32.0 °F 50% 30.16 in 10.0 mi NE 6.9 mph - N/A   Clear
9:15 AM 51.8 °F - 30.2 °F 44% 30.17 in 10.0 mi NE 8.1 mph - N/A   Clear
9:35 AM 53.6 °F - 30.2 °F 41% 30.17 in 10.0 mi NE 8.1 mph - N/A   Clear
9:55 AM 55.4 °F - 30.2 °F 38% 30.17 in 10.0 mi NE 9.2 mph - N/A   Clear
10:15 AM 57.2 °F - 28.4 °F 33% 30.17 in 10.0 mi ENE 10.4 mph - N/A   Clear
10:35 AM 59.0 °F - 28.4 °F 31% 30.18 in 10.0 mi NE 9.2 mph - N/A   Clear
10:55 AM 60.8 °F - 28.4 °F 29% 30.18 in 10.0 mi NE 8.1 mph - N/A   Clear
11:15 AM 60.8 °F - 26.6 °F 27% 30.18 in 10.0 mi ENE 9.2 mph - N/A   Clear
11:35 AM 62.6 °F - 26.6 °F 26% 30.18 in 10.0 mi East 5.8 mph - N/A   Clear
11:55 AM 62.6 °F - 28.4 °F 27% 30.18 in 10.0 mi ENE 5.8 mph - N/A   Clear
12:15 PM 62.6 °F - 26.6 °F 26% 30.18 in 10.0 mi NE 4.6 mph - N/A   Clear
12:35 PM 64.4 °F - 26.6 °F 24% 30.17 in 10.0 mi Calm Calm - N/A   Clear
12:55 PM 64.4 °F - 26.6 °F 24% 30.16 in 10.0 mi Calm Calm - N/A   Clear
1:15 PM 64.4 °F - 26.6 °F 24% 30.15 in 10.0 mi East 3.5 mph - N/A   Clear
1:35 PM 66.2 °F - 28.4 °F 24% 30.15 in 10.0 mi SSE 6.9 mph - N/A   Clear
1:55 PM 66.2 °F - 26.6 °F 23% 30.14 in 10.0 mi Calm Calm - N/A   Clear
2:15 PM 68.0 °F - 26.6 °F 21% 30.13 in 10.0 mi East 4.6 mph - N/A   Clear
2:35 PM 68.0 °F - 26.6 °F 21% 30.12 in 10.0 mi Calm Calm - N/A   Clear
2:55 PM 68.0 °F - 26.6 °F 21% 30.12 in 10.0 mi SSE 5.8 mph - N/A   Clear
3:15 PM 68.0 °F - 23.0 °F 18% 30.11 in 10.0 mi WSW 6.9 mph - N/A   Clear
3:35 PM 69.8 °F - 26.6 °F 20% 30.11 in 10.0 mi Calm Calm - N/A   Clear
3:55 PM 69.8 °F - 26.6 °F 20% 30.10 in 10.0 mi Calm Calm - N/A   Clear
4:15 PM 69.8 °F - 28.4 °F 21% 30.10 in 10.0 mi SSE 9.2 mph - N/A   Clear
4:35 PM 69.8 °F - 26.6 °F 20% 30.09 in 10.0 mi SSE 6.9 mph - N/A   Clear
4:55 PM 68.0 °F - 26.6 °F 21% 30.09 in 10.0 mi South 8.1 mph - N/A   Clear
5:15 PM 69.8 °F - 28.4 °F 21% 30.08 in 10.0 mi SSE 4.6 mph - N/A   Clear
5:35 PM 68.0 °F - 28.4 °F 23% 30.08 in 10.0 mi SE 8.1 mph - N/A   Clear
5:55 PM 68.0 °F - 28.4 °F 23% 30.08 in 10.0 mi South 8.1 mph - N/A   Clear
6:15 PM 68.0 °F - 26.6 °F 21% 30.07 in 10.0 mi SSE 5.8 mph - N/A   Clear
6:35 PM 64.4 °F - 32.0 °F 30% 30.08 in 10.0 mi SSE 10.4 mph - N/A   Clear
6:55 PM 62.6 °F - 33.8 °F 34% 30.08 in 10.0 mi SSE 6.9 mph - N/A   Clear
7:15 PM 62.6 °F - 33.8 °F 34% 30.09 in 10.0 mi SSE 8.1 mph - N/A   Clear
7:35 PM 60.8 °F - 32.0 °F 34% 30.09 in 10.0 mi SSE 6.9 mph - N/A   Clear
7:55 PM 59.0 °F - 32.0 °F 36% 30.09 in 10.0 mi SSE 4.6 mph - N/A   Clear
8:15 PM 59.0 °F - 32.0 °F 36% 30.09 in 10.0 mi SE 5.8 mph - N/A   Clear
8:35 PM 57.2 °F - 32.0 °F 38% 30.09 in 10.0 mi SSE 5.8 mph - N/A   Clear
8:55 PM 55.4 °F - 32.0 °F 41% 30.10 in 10.0 mi SSE 5.8 mph - N/A   Clear
9:15 PM 55.4 °F - 32.0 °F 41% 30.10 in 10.0 mi SSE 6.9 mph - N/A   Clear
9:35 PM 53.6 °F - 33.8 °F 47% 30.11 in 10.0 mi SSE 5.8 mph - N/A   Clear
9:55 PM 53.6 °F - 33.8 °F 47% 30.11 in 10.0 mi SSE 4.6 mph - N/A   Clear
10:15 PM 51.8 °F - 33.8 °F 50% 30.12 in 10.0 mi South 5.8 mph - N/A   Clear
10:35 PM 51.8 °F - 35.6 °F 54% 30.12 in 10.0 mi Calm Calm - N/A   Clear
10:55 PM 51.8 °F - 35.6 °F 54% 30.12 in 10.0 mi Calm Calm - N/A   Clear
11:15 PM 51.8 °F - 35.6 °F 54% 30.12 in 10.0 mi Calm Calm - N/A   Clear
11:35 PM 50.0 °F - 35.6 °F 58% 30.12 in 10.0 mi Calm Calm - N/A   Clear
11:55 PM 51.8 °F - 37.4 °F 58% 30.13 in 10.0 mi Calm Calm - N/A   Clear